"Pseudo-MPEC" for C1542W2

Created 2019 Oct 11 13:07:13 UT using Find_Orb

Click here for an explanation of pseudo-MPECs

 
 Astrometry: 
     C1542W2  C2019 10 09.19280 00 44 17.46 +14 30 43.8    ~A97b 20.2 GVNEOCPG96
     C1542W2  C2019 10 09.19802 00 44 14.49 +14 31 41.1    ~A97b 21.4 GVNEOCPG96
     C1542W2  C2019 10 09.20323 00 44 11.53 +14 32 39.5    ~A97b 21.4 GVNEOCPG96
     C1542W2  C2019 10 09.20845 00 44 08.67 +14 33 36.8    ~A97b 20.4 GVNEOCPG96
     C1542W2  C2019 10 09.28426 00 43 25.53 +14 47 24.6    ~A98M 20.7 GVNEOCPG96
     C1542W2  C2019 10 09.28519 00 43 25.00 +14 47 35.0    ~A98M 20.7 GVNEOCPG96
     C1542W2  C2019 10 09.28611 00 43 24.49 +14 47 44.6    ~A98M 20.8 GVNEOCPG96
     C1542W2  C2019 10 09.28704 00 43 23.95 +14 47 55.0    ~A98M 20.9 GVNEOCPG96
     C1542W2  C2019 10 09.31262700 43 09.15 +14 52 29.7    ~A98M 20.3 GVNEOCPH01
     C1542W2  C2019 10 09.31646500 43 06.98 +14 53 11.1    ~A98M 20.5 GVNEOCPH01
     C1542W2  C2019 10 09.32958700 42 59.56 +14 55 32.5    ~A98M 20.2 GVNEOCPH01
     C1542W2  C2019 10 09.33451300 42 56.79 +14 56 25.7    ~A98M 20.0 GVNEOCPH01
     C1542W2  C2019 10 09.35616 00 42 44.81 +15 00 20.5    ~A997 21.0 GVNEOCPI52
     C1542W2  C2019 10 09.35825 00 42 43.66 +15 00 43.2    ~A997 21.1 GVNEOCPI52
     C1542W2  C2019 10 09.36033 00 42 42.49 +15 01 05.5    ~A997 21.0 GVNEOCPI52
     C1542W2  C2019 10 09.36241 00 42 41.74 +15 01 19.1    ~A997 20.7 GVNEOCPI52
     C1542W2  C2019 10 10.16889 00 35 46.46 +17 20 36.7    ~AA4b       VNEOCPI52
     C1542W2  C2019 10 10.17139 00 35 45.16 +17 21 00.4    ~AA4b       VNEOCPI52
     C1542W2  C2019 10 10.17389 00 35 43.71 +17 21 25.2    ~AA4b       VNEOCPI52
     C1542W2  C2019 10 10.17639 00 35 42.38 +17 21 50.4    ~AA4b       VNEOCPI52
     C1542W2 IC2019 10 11y;Astrometry@@h*ikHUp!5!7Eyj0F(N**/ncw2)P'#po-_:0n0eL01
     C1542W2 pC2019 10 11)eNdG90Guredacted;8+YHyByeKOlOE;6^U-?f6*B?clickHi2YkL01
     C1542W2 pC2019 10 11-Kv@sPbrog!herebW-for_g-F,Mexplanation6kpUm_APNR'H%WL01
     C1542W2  C2019 10 11.14594 00 27 45.86 +19 54 26.0    ~AB4M       VNEOCPI52
     C1542W2  C2019 10 11.14844 00 27 44.64 +19 54 48.2    ~AB4M 21.1 GVNEOCPI52
     C1542W2  C2019 10 11.15094 00 27 43.38 +19 55 10.0    ~AB4M       VNEOCPI52

Station data:
(G96) Mt. Lemmon Survey  (N32.442754 W110.788720)  US/Arizona.  Observers T.
   A. Pruyne, B. M. Africano, E. J. Christensen, G. A. Farneth, D. C. Fuls,
   A. R. Gibbs, A. D. Grauer, H. Groeller, J. A. Johnson, R. A. Kowalski, S.
   M. Larson, G. J. Leonard, D. Rankin, R. L. Seaman, F. C. Shelly. 1.5-m
   reflector + 10K CCD.
(H01) Magdalena Ridge Observatory, Socorro  (N33.984833 W107.189333)  US/New
   Mexico.  Observers W. H. Ryan, E. V. Ryan. Measurer W. H. Ryan. 2.4-m
   f/8.9 reflector + CCD.
(I52) Steward Observatory, Mt. Lemmon Station  (N32.442547 W110.788920)
   US/Arizona.  Observers T. A. Pruyne, B. M. Africano, E. J. Christensen, G.
   A. Farneth, D. C. Fuls, A. R. Gibbs, A. D. Grauer, H. Groeller, J. A.
   Johnson, R. A. Kowalski, S. M. Larson, G. J. Leonard, D. Rankin, R. L.
   Seaman, F. C. Shelly. 1.0-m reflector + CCD.
(L01) Višnjan Observatory, Tičan  (N45.290900 E13.749300)  Croatia.
   Observers K. Korlević, E. Pettarin. Measurer E. Pettarin. 1.0-m f/2.9
   reflector + CCD.

Orbital elements:  C1542W2
   Perihelion 2019 Aug 11.773075 +/- 0.3 TT = 18:33:13 (JD 2458707.273075)
Epoch 2019 Oct 11.0 TT = JDT 2458767.5   Earth MOID: 0.0848   AutoNEOCP
M  39.64034983 +/- 0.48             (J2000 ecliptic)
n   0.65818319 +/- 0.0049           Peri.  301.68301 +/- 0.28
a   1.30889514 +/- 0.00652          Node    13.53193 +/- 0.0031
e   0.2415450 +/- 0.00342           Incl.   24.34955 +/- 0.19
P   1.50/546.95d           H 25.2   G  0.15   U  9.2  
q 0.99273802 +/- 0.000648    Q 1.62505226 +/- 0.0126
From 26 observations 2019 Oct. 9-11 (47.0 hr); mean residual 1".53
Residuals in arcseconds: 
191009 G96  .49-  .21+    191009 H01  .23-  .43+    191010 I52  .91-  .00     
191009 G96  .72-  .02+    191009 H01  .27-  .32+    191010 I52  .92-  .16+    
191009 G96  .86-  1.1+    191009 H01  .13-  .48+    191011 L01  1.3-  .41+    
191009 G96  .57+  .97+    191009 I52  .60-  .04+    191011 L01  .56+  .55-    
191009 G96  .44-  .37+    191009 I52  .22-  .31+    191011 L01  .56-  .08-    
191009 G96  .46-  .67+    191009 I52  .21-  .30+    191011 I52  .46+  .56+    
191009 G96  .28-  .28+    191009 I52  5.9+  8.4-    191011 I52  .79+  .08+    
191009 G96  .44-  .58+    191010 I52  .43+  1.6+    191011 I52  .56+  .78-    
191009 H01  .26-  .48+    191010 I52  .83+  .24+    

Ephemerides (geocentric):
Date (UTC) HH   RA              Dec         delta   r     elong  mag " sig PA
---- -- -- --  -------------   -----------  ------ ------ -----  --- ---- ---
2019 10 11 13  00 24 36.404   +20 52 42.14  .11486 1.1087 163.0 21.5 .228  18
2019 10 11 14  00 24 17.101   +20 58 39.27  .11509 1.1088 162.8 21.6 .224  20
2019 10 11 15  00 23 57.853   +21 04 34.79  .11532 1.1090 162.7 21.6 .220  22
2019 10 11 16  00 23 38.659   +21 10 28.70  .11555 1.1091 162.6 21.6 .216  24
2019 10 11 17  00 23 19.519   +21 16 21.01  .11579 1.1092 162.4 21.6 .213  27
2019 10 11 18  00 23 00.434   +21 22 11.71  .11602 1.1094 162.3 21.6 .210  30
2019 10 11 19  00 22 41.404   +21 28 00.83  .11625 1.1095 162.2 21.6 .207  32
2019 10 11 20  00 22 22.427   +21 33 48.36  .11648 1.1096 162.0 21.6 .205  35
2019 10 11 21  00 22 03.504   +21 39 34.31  .11672 1.1098 161.9 21.6 .203  39
2019 10 11 22  00 21 44.636   +21 45 18.69  .11695 1.1099 161.8 21.6 .202  42
2019 10 11 23  00 21 25.821   +21 51 01.50  .11718 1.1101 161.6 21.6 .202  45
2019 10 12 00  00 21 07.060   +21 56 42.74  .11742 1.1102 161.5 21.6 .202  48
2019 10 12 01  00 20 48.353   +22 02 22.42  .11766 1.1103 161.4 21.7 .203  52
2019 10 12 02  00 20 29.700   +22 08 00.55  .11789 1.1105 161.3 21.7 .204  55
2019 10 12 03  00 20 11.100   +22 13 37.14  .11813 1.1106 161.1 21.7 .207  59
2019 10 12 04  00 19 52.554   +22 19 12.18  .11837 1.1108 161.0 21.7 .210  62
2019 10 12 05  00 19 34.061   +22 24 45.69  .11860 1.1109 160.9 21.7 .214  66
2019 10 12 06  00 19 15.622   +22 30 17.66  .11884 1.1110 160.8 21.7 .219  69
2019 10 12 07  00 18 57.236   +22 35 48.11  .11908 1.1112 160.6 21.7 .225  72
2019 10 12 08  00 18 38.903   +22 41 17.05  .11932 1.1113 160.5 21.7 .232  75
2019 10 12 09  00 18 20.623   +22 46 44.47  .11956 1.1115 160.4 21.7 .239  78
2019 10 12 10  00 18 02.397   +22 52 10.38  .11980 1.1116 160.3 21.7 .247  81
2019 10 12 11  00 17 44.223   +22 57 34.79  .12005 1.1117 160.1 21.7 .256  84
2019 10 12 12  00 17 26.102   +23 02 57.71  .12029 1.1119 160.0 21.7 .265  87
2019 10 12 13  00 17 08.034   +23 08 19.14  .12053 1.1120 159.9 21.8 .275  89
2019 10 12 14  00 16 50.018   +23 13 39.08  .12077 1.1122 159.8 21.8 .286  91
2019 10 12 15  00 16 32.056   +23 18 57.55  .12102 1.1123 159.6 21.8 .297  93
2019 10 12 16  00 16 14.145   +23 24 14.54  .12126 1.1124 159.5 21.8 .309  95
2019 10 12 17  00 15 56.288   +23 29 30.06  .12151 1.1126 159.4 21.8 .321  97
2019 10 12 18  00 15 38.482   +23 34 44.13  .12175 1.1127 159.3 21.8 .334  99
2019 10 12 19  00 15 20.729   +23 39 56.74  .12200 1.1128 159.2 21.8 .348 101
2019 10 12 20  00 15 03.028   +23 45 07.90  .12225 1.1130 159.0 21.8 .362 102
2019 10 12 21  00 14 45.379   +23 50 17.62  .12249 1.1131 158.9 21.8 .376 104
2019 10 12 22  00 14 27.782   +23 55 25.90  .12274 1.1133 158.8 21.8 .391 105
2019 10 12 23  00 14 10.237   +24 00 32.75  .12299 1.1134 158.7 21.8 .406 106
2019 10 13 00  00 13 52.744   +24 05 38.18  .12324 1.1135 158.6 21.8 .421 107
2019 10 13 01  00 13 35.303   +24 10 42.18  .12349 1.1137 158.4 21.8 .437 109
2019 10 13 02  00 13 17.913   +24 15 44.77  .12374 1.1138 158.3 21.9 .453 110
2019 10 13 03  00 13 00.574   +24 20 45.96  .12399 1.1140 158.2 21.9 .470 111
2019 10 13 04  00 12 43.288   +24 25 45.74  .12424 1.1141 158.1 21.9 .487 112
2019 10 13 05  00 12 26.052   +24 30 44.12  .12449 1.1142 158.0 21.9 .504 112
2019 10 13 06  00 12 08.868   +24 35 41.12  .12474 1.1144 157.9 21.9 .521 113
2019 10 13 07  00 11 51.735   +24 40 36.73  .12499 1.1145 157.7 21.9 .539 114
2019 10 13 08  00 11 34.653   +24 45 30.96  .12525 1.1147 157.6 21.9 .557 115
2019 10 13 09  00 11 17.622   +24 50 23.82  .12550 1.1148 157.5 21.9 .576 116
2019 10 13 10  00 11 00.642   +24 55 15.32  .12575 1.1149 157.4 21.9 .594 116
2019 10 13 11  00 10 43.713   +25 00 05.45  .12601 1.1151 157.3 21.9 .613 117
2019 10 13 12  00 10 26.834   +25 04 54.23  .12626 1.1152 157.2 21.9 .633 117